Location: Gull Harbor
(47.1000°N, 122.9000°W)
Time: 10:54:08
(UTC-07:00)

Envisat - Pass Details

Date: 31 March 2019
Orbit: 764 x 766 km, 98.2° (Epoch: 24 April)

Event Time Altitude Azimuth Distance (km) Brightness Sun altitude
Rises 21:05:41 0° 212° (SSW) 3,222 6.3 -14.9°
Reaches altitude 10° 21:08:53 10° 233° (SW) 2,302 5.9 -15.4°
Maximum altitude 21:11:59 16° 271° (W) 1,915 6.0 -15.9°
Drops below altitude 10° 21:15:05 10° 309° (NW) 2,312 6.7 -16.3°
Sets 21:18:19 0° 331° (NNW) 3,244 7.2 -16.8°
